This is the latest recevied weather packets stored in our database for station/object W4MSI. If no packets are shown the sender has not sent any weather packets the latest 10 day(s).
| Time | Temp. | Humidity | Pressure | Rain* | Wind** | Luminosity | Snow |
|---|---|---|---|---|---|---|---|
| 1777524329 | 13.33° C | 73% | 1014.9 hPa | 0 mm | - | 0 W/m² | - |
| 1777524024 | 13.33° C | 75% | 1014.8 hPa | 0 mm | - | 0 W/m² | - |
| 1777523721 | 13.33° C | 75% | 1014.7 hPa | 0 mm | - | 0 W/m² | - |
| 1777523417 | 13.33° C | 76% | 1014.5 hPa | 0 mm | - | 0 W/m² | - |
| 1777523114 | 13.33° C | 76% | 1014.3 hPa | 0 mm | - | 0 W/m² | - |
| 1777522810 | 13.33° C | 75% | 1014.1 hPa | 0 mm | - | 0 W/m² | - |
| 1777522507 | 13.33° C | 76% | 1014.3 hPa | 0 mm | - | 0 W/m² | - |
| 1777522204 | 13.33° C | 76% | 1014.4 hPa | 0 mm | - | 0 W/m² | - |
| 1777521901 | 12.78° C | 81% | 1014.7 hPa | 0 mm | - | 0 W/m² | - |
| 1777521597 | 12.78° C | 81% | 1014.8 hPa | 0 mm | - | 0 W/m² | - |
| 1777521295 | 12.78° C | 83% | 1015.2 hPa | 0 mm | - | 0 W/m² | - |
| 1777520991 | 12.78° C | 82% | 1015.5 hPa | 0 mm | - | 0 W/m² | - |
| 1777520689 | 13.33° C | 82% | 1015.5 hPa | 0 mm | - | 0 W/m² | - |
| 1777520385 | 13.33° C | 81% | 1015.5 hPa | 0 mm | - | 0 W/m² | - |
| 1777520083 | 13.33° C | 84% | 1015.5 hPa | 0 mm | - | 0 W/m² | - |
| 1777519779 | 13.33° C | 84% | 1015.5 hPa | 0 mm | - | 0 W/m² | - |
| 1777519477 | 13.33° C | 80% | 1015.7 hPa | 0 mm | - | 0 W/m² | - |
| 1777519173 | 13.33° C | 81% | 1015.8 hPa | 0 mm | - | 0 W/m² | - |
| 1777518868 | 13.33° C | 79% | 1015.7 hPa | 0 mm | - | 0 W/m² | - |
| 1777518565 | 13.33° C | 78% | 1015.8 hPa | 0 mm | - | 0 W/m² | - |
| 1777518261 | 13.33° C | 77% | 1015.7 hPa | 0 mm | - | 0 W/m² | - |
| 1777517958 | 13.33° C | 79% | 1015.7 hPa | 0 mm | - | 0 W/m² | - |
| 1777517654 | 13.33° C | 79% | 1015.5 hPa | 0 mm | - | 0 W/m² | - |
| 1777517350 | 13.33° C | 79% | 1015.6 hPa | 0 mm | - | 0 W/m² | - |
| 1777517050 | 13.33° C | 79% | 1015.5 hPa | 0 mm | - | 0 W/m² | - |
* Rain latest hour (hover to see other rain measurements)
** Current wind speed in m/s (hover to see current wind gust speed)